Location: Newark
(55.2831°N, 38.7366°E)
Time: 13:37:44
(UTC+00:00)

ISS - Visible Passes

Search period start: 25 August 2019 00:00
Search period end: 04 September 2019 00:00
Orbit: 410 x 421 km, 51.6° (Epoch: 26 August)

Date Brightness Start Highest point End Pass type
(mag) Time Alt. Az. Time Alt. Az. Time Alt. Az.
31 Aug -1.3 01:16:36 10° S 01:18:28 14° SE 01:20:21 10° ESE visible
01 Sep -1.1 00:29:35 10° SSE 00:29:53 10° SE 00:30:12 10° SE visible
02 Sep -2.1 01:14:52 13° SSW 01:17:06 23° SSE 01:19:50 10° E visible
03 Sep -1.9 00:27:56 18° SSE 00:28:25 18° SSE 00:30:46 10° ESE visible
03 Sep -1.1 23:40:58 11° ESE 23:40:58 11° ESE 23:41:28 10° ESE visible
